Location: Unspecified
(0.0000°N, 0.0000°E)
Time: 23:33:06
(UTC+00:00)

Tiangong - Pass Details

Date: 03 May 2025
Orbit: 377 x 386 km, 41.5° (Epoch: 16 May)

Event Time Altitude Azimuth Distance (km) Brightness Sun altitude
Exits shadow 04:39:47 48° 185° (S) 511 -1.8 -18.5°
Maximum altitude 04:40:22 60° 136° (SE) 447 -1.8 -18.4°
Drops below altitude 10° 04:43:31 10° 55° (NE) 1,408 1.8 -17.6°
Sets 04:45:36 0° 51° (NE) 2,259 3.0 -17.1°
